TJS-6

Last updated on Thu Oct 30 2025 00:02:51 GMT+0000 (Coordinated Universal Time)

1 47613U 21010A 25302.54211330 .00000053 00000+0 00000+0 0 9992 2 47613 0.0229 196.7125 0001404 134.3703 80.7726 1.00268556 17491
UTC large
Height (km)
Speed (km/s)
/
Latitude / Longitude
Inclination (degrees)
Orbital Period (minutes)
Azimuth
Elevation
Range (km)
Doppler Factor

Next 0 passes for location: London (51.5072 / 0.1276)

Sorry there are no passes over London.